Regional Weather Roundup
Issued by NWS Little Rock, AR

Home | Current Version | Previous Version | Text Only | Print | Product List | Glossary Off
Versions: 1 2 3 4 5 6 7 8 9 10 11 12 13 14 15 16 17 18 19 20 21 22 23 24 25 26 27 28 29 30 31 32 33 34 35 36 37 38 39 40 41 42 43 44 45 46 47 48 49 50

000
ASUS44 KLZK 221505
RWRLZK

WEATHER ROUNDUP FOR ARKANSAS
NATIONAL WEATHER SERVICE LITTLE ROCK AR
1000 AM CDT MON SEP 22 2014

NOTE: "FAIR" INDICATES FEW OR NO CLOUDS BELOW 12,000 FEET WITH NO
SIGNIFICANT WEATHER AND/OR OBSTRUCTIONS TO VISIBILITY.

ARZ001-003-010-029-221600-
NORTHWEST ARKANSAS

CITY           SKY/WX    TMP DP  RH WIND       PRES   REMARKS
FAYETTEVILLE   SUNNY     62  53  72 VRB3      30.31R
FORT SMITH     SUNNY     67  53  61 NE9       30.28R
HARRISON       SUNNY     63  52  67 N5        30.31R
BENTONVILLE    SUNNY     63  52  67 E6        30.32R
ROGERS         SUNNY     63  51  65 E10       30.32R
SILOAM SPGS    SUNNY     63  50  63 E6        30.32S
HIGHFILL       SUNNY     63  54  72 E5        30.31R
SPRINGDALE     SUNNY     63  54  72 NE9       30.33R
$$

ARZ004-005-016-221600-
NORTH CENTRAL ARKANSAS

CITY           SKY/WX    TMP DP  RH WIND       PRES   REMARKS
BATESVILLE     SUNNY     66  52  59 NE7       30.27S
FLIPPIN        SUNNY     64  48  55 E5        30.30S
MTN HOME       SUNNY     64  51  62 E7        30.30R
$$

ARZ040-041-221600-
WEST CENTRAL ARKANSAS

CITY           SKY/WX    TMP DP  RH WIND       PRES   REMARKS
MENA             N/A     68  54  60 E5        30.27S
MOUNT IDA      SUNNY     68  54  60 VRB3      30.24R
$$

ARZ009-017-025-026-028-221600-
NORTHEAST ARKANSAS

CITY           SKY/WX    TMP DP  RH WIND       PRES   REMARKS
CORNING          N/A     64  54  68 NE9       30.27S
JONESBORO      SUNNY     67  52  58 NE8       30.25R
NEWPORT        SUNNY     67  53  60 NE15      30.27R
WALNUT RIDGE   SUNNY     64  28  25 NE13      30.26S
BLYTHEVILLE    SUNNY     67  56  67 NE8       30.25R
NW BLYTHEVILLE SUNNY     64  55  72 N12       30.25R
$$

ARZ022-023-033-042-044-221600-
CENTRAL ARKANSAS

CITY           SKY/WX    TMP DP  RH WIND       PRES   REMARKS
LITTLE ROCK    SUNNY     70  51  51 E10       30.25S
N LITTLE ROCK  SUNNY     70  55  59 NE9       30.25S
JACKSONVILLE   SUNNY     69  52  53 NE10      30.25R
SEARCY         SUNNY     70  53  54 N10       30.26S
HOT SPRINGS    SUNNY     69  52  54 E10       30.25R
RUSSELLVILLE   SUNNY     69  52  54 NE5       30.27S
CLINTON        FAIR      66  54  63 N3        30.28S
$$

ARZ036-221600-
EAST ARKANSAS

CITY           SKY/WX    TMP DP  RH WIND       PRES   REMARKS
WEST MEMPHIS   SUNNY     68  56  65 NE12      30.22R
$$

ARZ050-053-066-070-073-221600-
SOUTHWEST ARKANSAS

CITY           SKY/WX    TMP DP  RH WIND       PRES   REMARKS
ARKADELPHIA    FAIR      70  56  61 VRB6      30.24R
CAMDEN         SUNNY     72  52  49 NE8       30.22R
TEXARKANA      SUNNY     71  54  54 NE10      30.22R
EL DORADO      SUNNY     71  54  54 NE9       30.21R
DE QUEEN       SUNNY     71  55  56 E7        30.22S
$$

ARZ056-057-069-221600-
SOUTHEAST ARKANSAS

CITY           SKY/WX    TMP DP  RH WIND       PRES   REMARKS
PINE BLUFF     SUNNY     69  52  54 NE10      30.23R
STUTTGART      SUNNY     68  54  60 NE10      30.24S
MONTICELLO     SUNNY     71  54  54 NE12      30.20R

$$





USA.gov is the U.S. government's official web portal to all federal, state and local government web resources and services.